Location: *
(58.7167°N, 26.1833°E)
Time: 11:40:47
(UTC+00:00)

Helios 1A - Pass Details

Date: 25 August 2019
Orbit: 583 x 605 km, 98.2° (Epoch: 09 September)

Event Time Altitude Azimuth Distance (km) Brightness Sun altitude
Exits shadow 19:50:09 20° 109° (ESE) 1,396 4.4 -14.5°
Maximum altitude 19:52:20 33° 60° (ENE) 1,015 4.1 -14.7°
Drops below altitude 10° 19:56:07 10° 356° (N) 1,944 6.5 -15.0°
Sets 19:58:26 0° 347° (NNW) 2,855 7.8 -15.2°
